Date String (YYYY-MM-DD hh:mm:ss) UTC,Instrument flags,Ambient pressure (hPa),Sample flow (lpm),Bypass flow (lpm),Sample temperature (°C),Ambient temperature (°C),ASC tube jacket temperature (°C),LED temperature (°C),Box temperature (°C),Sample RH (%),Span deviation,Mass concentration (μg/m³),Mass concentration (μg/m³),Mass concentration (μg/m³)
DateTimeUTC,F1_M11,P_M11,Q1_M11,Q2_M11,T1_M11,T2_M11,T3_M11,T4_M11,T5_M11,U1_M11,ZSPAN_M11,X0_M11,X2_M11,X1_M11
2022-09-22 09:00:00,,0832.5,4.99,0.00,28.8,27.2,00.0,37.6,30.7,25.6,0000.0,0005.02,0003.23,0002.99
2022-09-22 09:01:00,,0832.5,5.01,0.00,28.8,27.2,00.0,37.6,30.7,25.5,0000.0,0005.07,0003.26,0003.04
2022-09-22 09:02:00,,0832.5,4.99,0.00,28.8,27.2,00.0,37.6,30.7,25.5,0000.0,0005.21,0003.30,0003.09
2022-09-22 09:03:00,,0832.4,5.00,0.00,28.8,27.2,00.0,37.6,30.7,25.4,0000.0,0005.12,0003.28,0003.06
2022-09-22 09:04:00,,0832.4,5.00,0.00,28.8,27.2,00.0,37.6,30.7,25.5,0000.0,0005.12,0003.28,0003.05
2022-09-22 09:05:00,,0832.3,4.99,0.00,28.8,27.2,00.0,37.6,30.7,25.5,0000.0,0005.10,0003.26,0003.02
2022-09-22 09:06:00,,0832.3,5.01,0.00,28.8,27.3,00.0,37.6,30.7,25.5,0000.0,0005.13,0003.25,0002.98
2022-09-22 09:07:00,,0832.4,4.99,0.00,28.8,27.3,00.0,37.6,30.7,25.4,0000.0,0005.06,0003.23,0002.96
2022-09-22 09:08:00,,0832.3,5.00,0.00,28.8,27.3,00.0,37.6,30.7,25.4,0000.0,0004.73,0003.21,0002.92
2022-09-22 09:09:00,,0832.2,5.01,0.00,28.8,27.3,00.0,37.6,30.7,25.4,0000.0,0004.14,0003.17,0002.85
2022-09-22 09:10:00,,0832.2,5.00,0.00,28.8,27.3,00.0,37.6,30.7,25.4,0000.0,0004.13,0003.15,0002.79
2022-09-22 09:11:00,,0832.3,4.99,0.00,28.8,27.3,00.0,37.6,30.7,25.4,0000.0,0004.08,0003.12,0002.73
2022-09-22 09:12:00,,0832.3,5.01,0.00,28.8,27.3,00.0,37.6,30.7,25.3,0000.0,0004.09,0003.06,0002.65
2022-09-22 09:13:00,,0832.3,4.99,0.00,28.8,27.3,00.0,37.6,30.7,25.3,0000.0,0003.99,0002.96,0002.56
2022-09-22 09:14:00,,0832.3,5.01,0.00,28.8,27.3,00.0,37.6,30.7,25.3,0000.0,0004.01,0002.95,0002.53
2022-09-22 09:15:00,,0832.3,4.99,0.00,28.8,27.3,00.0,37.6,30.7,25.3,0000.0,0004.02,0002.94,0002.53
2022-09-22 09:16:00,,0832.3,5.00,0.00,28.8,27.3,00.0,37.6,30.7,25.4,0000.0,0004.06,0002.95,0002.51
2022-09-22 09:17:00,,0832.1,5.00,0.00,28.8,27.3,00.0,37.6,30.7,25.3,0000.0,0004.06,0002.96,0002.51
2022-09-22 09:18:00,,0832.1,4.99,0.00,28.8,27.4,00.0,37.6,30.7,25.2,0000.0,0004.07,0002.95,0002.49
2022-09-22 09:19:00,,0832.1,5.01,0.00,28.9,27.4,00.0,37.6,30.7,25.2,0000.0,0004.11,0002.95,0002.47
2022-09-22 09:20:00,,0832.1,4.99,0.00,28.9,27.3,00.0,37.6,30.7,25.2,0000.0,0003.99,0002.91,0002.45
2022-09-22 09:21:00,,0832.1,5.01,0.00,28.9,27.4,00.0,37.6,30.7,25.3,0000.0,0003.96,0002.92,0002.45
2022-09-22 09:22:00,,0832.1,4.99,0.00,28.9,27.4,00.0,37.6,30.7,25.3,0000.0,0004.10,0002.94,0002.46
2022-09-22 09:23:00,,0832.1,5.01,0.00,28.9,27.4,00.0,37.6,30.7,25.3,0000.0,0004.16,0002.98,0002.49
2022-09-22 09:24:00,,0832.1,4.99,0.00,28.9,27.3,00.0,37.6,30.8,25.4,0000.0,0004.25,0003.05,0002.53
2022-09-22 09:25:00,,0832.1,5.01,0.00,28.9,27.3,00.0,37.6,30.7,25.3,0000.0,0004.30,0003.11,0002.59
2022-09-22 09:26:00,,0832.1,4.99,0.00,28.9,27.3,00.0,37.6,30.7,25.3,0000.0,0004.53,0003.15,0002.63
2022-09-22 09:27:00,,0832.1,5.01,0.00,28.9,27.2,00.0,37.6,30.7,25.3,0000.0,0004.55,0003.16,0002.66
2022-09-22 09:28:00,,0832.0,4.99,0.00,28.8,27.2,00.0,37.6,30.7,25.4,0000.0,0004.57,0003.18,0002.71
2022-09-22 09:29:00,,0832.1,5.00,0.00,28.8,27.2,00.0,37.6,30.7,25.4,0000.0,0004.63,0003.21,0002.77
2022-09-22 09:30:00,,0832.1,5.00,0.00,28.8,27.2,00.0,37.6,30.7,25.4,0000.0,0004.66,0003.25,0002.84
2022-09-22 09:31:00,,0832.2,4.99,0.00,28.8,27.2,00.0,37.6,30.7,25.5,0000.0,0004.73,0003.28,0002.91
2022-09-22 09:32:00,,0832.2,5.00,0.00,28.8,27.3,00.0,37.6,30.7,25.5,0000.0,0004.65,0003.28,0002.95
2022-09-22 09:33:00,,0832.3,5.00,0.00,28.8,27.3,00.0,37.6,30.7,25.5,0000.0,0004.59,0003.31,0003.02
2022-09-22 09:34:00,,0832.4,5.02,0.00,28.8,27.3,00.0,37.6,30.7,25.5,0000.0,0004.57,0003.33,0003.08
2022-09-22 09:35:00,,0832.3,4.99,0.00,28.8,27.3,00.0,37.6,30.7,25.5,0000.0,0004.53,0003.34,0003.12
2022-09-22 09:36:00,,0832.3,5.01,0.00,28.8,27.3,00.0,37.6,30.7,25.5,0000.0,0004.46,0003.34,0003.15
2022-09-22 09:37:00,,0832.3,4.99,0.00,28.8,27.3,00.0,37.6,30.7,25.6,0000.0,0004.31,0003.34,0003.16
2022-09-22 09:38:00,,0832.3,5.00,0.00,28.8,27.3,00.0,37.6,30.7,26.3,0000.0,0004.39,0003.37,0003.19
2022-09-22 09:39:00,,0832.3,5.00,0.00,28.9,27.3,00.0,37.6,30.7,26.6,0000.0,0004.68,0003.41,0003.22
2022-09-22 09:40:00,,0832.3,5.00,0.00,28.9,27.3,00.0,37.6,30.7,25.9,0000.0,0004.72,0003.44,0003.25
2022-09-22 09:41:00,,0832.3,5.00,0.00,28.9,27.3,00.0,37.6,30.7,25.9,0000.0,0004.71,0003.45,0003.26
2022-09-22 09:42:00,,0832.3,5.00,0.00,28.9,27.3,00.0,37.6,30.8,25.8,0000.0,0004.76,0003.47,0003.28
2022-09-22 09:43:00,,0832.3,5.00,0.00,28.9,27.3,00.0,37.6,30.8,25.7,0000.0,0004.81,0003.49,0003.30
2022-09-22 09:44:00,,0832.2,4.99,0.00,28.9,27.3,00.0,37.6,30.7,25.7,0000.0,0004.90,0003.52,0003.32
2022-09-22 09:45:00,,0832.2,5.02,0.00,28.9,27.4,00.0,37.6,30.7,25.7,0000.0,0004.88,0003.52,0003.32
2022-09-22 09:46:00,,0832.1,4.99,0.00,28.9,27.4,00.0,37.6,30.8,25.7,0000.0,0004.95,0003.55,0003.33
2022-09-22 09:47:00,,0832.1,5.01,0.00,28.9,27.4,00.0,37.6,30.8,25.7,0000.0,0005.12,0003.58,0003.35
2022-09-22 09:48:00,,0832.1,4.99,0.00,28.9,27.4,00.0,37.6,30.8,25.7,0000.0,0005.29,0003.62,0003.35
2022-09-22 09:49:00,,0832.1,4.99,0.00,28.9,27.4,00.0,37.6,30.8,25.7,0000.0,0005.22,0003.61,0003.35
2022-09-22 09:50:00,,0832.1,5.01,0.00,28.9,27.4,00.0,37.6,30.8,25.8,0000.0,0004.90,0003.59,0003.34
2022-09-22 09:51:00,,0832.1,4.99,0.00,28.9,27.4,00.0,37.6,30.8,25.8,0000.0,0004.90,0003.58,0003.34
2022-09-22 09:52:00,,0832.0,5.02,0.00,28.9,27.4,00.0,37.6,30.8,25.7,0000.0,0004.94,0003.59,0003.35
2022-09-22 09:53:00,,0832.1,4.99,0.00,28.9,27.4,00.0,37.6,30.7,25.7,0000.0,0004.99,0003.60,0003.35
2022-09-22 09:54:00,,0832.1,5.00,0.00,28.9,27.4,00.0,37.6,30.7,25.7,0000.0,0005.08,0003.63,0003.36
2022-09-22 09:55:00,,0832.0,5.00,0.00,28.9,27.4,00.0,37.6,30.8,25.6,0000.0,0005.06,0003.62,0003.36
2022-09-22 09:56:00,,0832.0,5.00,0.00,28.9,27.4,00.0,37.6,30.8,25.6,0000.0,0005.05,0003.61,0003.35
2022-09-22 09:57:00,,0831.9,5.00,0.00,28.9,27.4,00.0,37.6,30.8,25.6,0000.0,0004.99,0003.59,0003.34
2022-09-22 09:58:00,,0831.8,5.01,0.00,28.9,27.4,00.0,37.6,30.8,25.7,0000.0,0004.95,0003.57,0003.33
2022-09-22 09:59:00,,0831.7,5.00,0.00,28.9,27.4,00.0,37.6,30.8,25.7,0000.0,0004.75,0003.53,0003.32
